STARLINK-11197, 60186

Orbit data source: Space-Track

STARLINK-11197, 60186 is a payload satellite owned by SpaceX/Seattle (US) in LEO that was launched on Wed, 03 Jul 2024 UTC via an FALCON 9 launch vehicle from the Air Force Eastern Test Range (AFETR). Payload-class satellites include a variety of spacecraft equipped with specific instruments for various scientific and technological missions. These include communications satellites like Starlink; space stations such as the ISS; scientific satellites like the Hubble; Earth observation satellites from companies like Planet Labs, Umbra, and HawkEye 360; GPS; miniature CubeSats for education and research; and military/defense satellites.

Loading next visibility...
Identifier
60186, 2024-124D
Orbit
LEO
Last TLE update
7 hours ago
Origin
Manufacturer
SpaceX/Seattle
Mission
Operational Commercial Communications
Bus & Motor
STARLINK V2M, Unknown motor
Mass
730 kg wet, ~700 kg dry
Launch date (UTC)
2024-07-03 (10 months ago)
Launch vehicle
FALCON 9
Launch site
Air Force Eastern Test Range (AFETR)
Object type
Payload
Rocket body
Debris
Shape & HBR
Box + 2 Pan, 29 m
Radar Cross Section
36.964 m², Large (>1 m²)

Expand to show TLE details & history

TLE from 7 hours ago
0 STARLINK-11197
1 60186U 24124D   25115.50946850 -.00002481  00000-0 -15646-4 0  9998
2 60186  53.1575 289.5219 0000871  62.9705 297.1401 15.69686660 47749
Epoch: 2025-04-25T12:13Z
Definitive object data (Epoch: 2025-04-25T12:13:38.078Z)
Latitude
-0.00007°
Longitude
-107.65234°
Altitude
360.441 km
Speed
7.694 km/s
True Right ascension
19h 18m 05s
True Declination
0° 00' 00"
Sunlit
Object was in daylight at TLE epoch
Visualization TLE readout
Latitude
-28.42688°
Longitude
94.68805°
Altitude
368.858 km
Speed
7.688 km/s
Apparent Right ascension
11h 18m 53s
Apparent Declination
-42° 22' 46"
Sunlit
Object is in daylight
Visualization observer readout
Local Sidereal Time
02:31:09
Azimuth
110.019° ESE
Elevation
-54.206°
Doppler factor
1
Orbital elements
Apogee altitude
360.642 km
Perigee altitude
359.468 km
Semi-major axis
6,738.192 km
Eccentricity
0.0000871
Inclination
53.1575°
RAAN
289.5219°
Arg. of periapsis
62.9705°
True anomaly
297.13122°
Mean anomaly
297.1401°
Eccentric anomaly
297.13566°
Mean motion
3.92399 °/min
BSTAR
-0.000015646
Orbital period
91.74 mins
Loading maneuver chart data...
Loading SW <> Apogee altitude chart data...
Loading historical data...
Loading historical data...
Loading historical data...
Loading historical data...
Loading historical data...
Loading historical data...
Loading historical data...

STARLINK-11197 Visibility forecast

Observer location: undefined°, undefined°

Span
Click to sort rows by Start time (UTC) header in descending order
Start Az.
Max El. time (UTC)
Max El. Az.
Max El.
End time (UTC)
End Az.
4 mins2025-04-25 20:20:24.707Z346.564° N2025-04-25 20:22:24.707Z45.144° ENE21.023°2025-04-25 20:24:24.707Z86.6° E
|